Vertical_Velocity
3 1 -2 -1 1 -2 -6 -2 -3 1 2 3 -3 -2 -1 -4 7 -1 -3 -0 -2 7 4 -2 -3 -2 -5 -3 -1 1 1 7 -0 0 1 -0 -4 -2 0 -0 1 1 4 -7 -1 1 -3 32 0 5 -1 4 -3 -3
-0 2 3 -1 -4 -5 -2 -1 0 3 -5 -6 3 -3 3 -1 5 5 -0 2 1 3 4 -2 5 -4 -5 2 -7 -4 2 3 -8 -6 4 -2 -5 -3 4 -1 -1 -2 -6 -2 -6 -4 8 2 4 2 18 14 9 -0
0 -2 3 -3 -8 -3 -0 -3 -5 -3 0 3 0 4 4 3 5 11 1 1 1 -2 0 7 -1 -1 1 -4 -5 -7 18 0 -0 -4 -3 -5 -2 1 -3 7 -1 -1 -5 4 -3 32 14 -2 6 7 8 -1 3 5
-5 -3 0 -13 -2 0 -3 -4 -3 -0 1 2 5 6 6 8 5 8 3 -2 -3 -4 -8 20 0 2 -7 -4 1 -0 2 -1 1 1 -4 -7 2 -4 3 -3 3 -0 10 8 20 6 24 3 2 -3 -9 0 4 2
1 -5 -10 -3 -3 -2 -2 -5 -5 -2 5 12 11 8 11 6 0 -3 -2 -0 -1 -3 -8 21 -3 -2 -6 0 -0 0 4 2 0 -3 -5 -4 1 -9 -2 -0 11 10 7 4 14 -4 -1 -1 0 -2 -5 -6 -8 -8
-3 -6 -8 -6 -4 -2 -0 -5 -1 3 6 11 8 6 2 -2 -1 0 -5 -3 -2 -2 2 2 -9 -5 -5 -4 -2 -6 -1 1 0 -0 -0 -1 4 -8 -3 2 -2 10 9 10 8 2 -3 2 2 -2 -2 -7 -7 -8
-3 -3 -2 -6 -5 -5 -2 -6 -4 -2 3 5 2 0 -2 -0 -2 -0 -5 -5 0 -0 1 -4 -3 -3 -4 -4 -2 1 2 1 1 -0 2 -4 -2 -8 3 3 12 11 16 2 1 -0 1 -8 -6 -2 -5 -3 -5 -2
-2 -3 -12 -14 -13 -8 -6 -4 -4 -5 -6 -5 -3 -4 -3 -2 -3 -1 1 -1 -2 -1 -2 -2 -4 -4 1 1 1 1 -1 8 -1 -4 2 -3 -5 0 2 6 3 0 1 -0 -1 1 -2 -5 -5 -2 -1 0 1 -0
-5 -3 -13 -13 -7 -7 -8 -8 -8 -7 -7 -5 -1 1 -2 -0 1 1 -0 2 1 -1 -3 -1 4 10 6 6 13 5 -0 -1 -2 -3 -1 -0 2 -0 3 -1 -3 -1 4 4 1 3 -0 -1 -1 2 3 0 -4 -3
-1 -6 -9 -9 -6 -8 -11 -9 -6 -2 -4 -6 -6 -0 3 5 3 2 5 0 3 6 14 16 6 2 9 4 -0 4 5 8 9 7 5 2 -1 1 9 11 4 1 -3 -4 -1 -0 -1 -7 -2 -2 -2 -4 -2 -2
-6 -6 -5 -3 -4 -3 -0 0 -5 -8 -5 -4 -4 -6 -7 -8 -6 -5 -5 -8 -4 -4 -1 -2 -1 2 1 2 0 3 6 2 3 17 2 1 22 20 6 -0 -1 -3 -1 -2 -2 1 2 1 2 -1 -3 -2 0 -0
-2 -2 -2 -1 -2 -3 -2 -2 -3 -1 0 -2 -1 1 -2 -3 -2 -3 -2 -2 2 -3 -2 1 4 -1 1 -2 -2 1 -2 4 0 -5 1 0 -1 3 3 1 -1 -0 0 -1 0 -1 -4 -1 2 2 3 2 2 1
-1 -1 -1 -1 -1 -1 -0 -1 -1 -1 -0 -0 1 6 5 -4 0 0 -1 1 1 1 1 -3 -2 -2 -3 -0 0 0 1 1 1 0 -0 -1 -0 0 -0 -0 0 1 1 1 1 2 2 2 2 1 -0 1 3 1
1 0 0 0 1 1 -0 -0 0 1 0 2 0 2 2 -0 -1 -0 -1 -2 -3 -2 -2 -3 -1 -1 -1 -1 -1 -1 -0 2 1 0 -5 -2 -2 -2 -2 -3 -0 -1 -1 -0 -0 -1 -2 -1 -1 1 2 1 1 2
0 1 1 -0 -1 -1 -1 -1 -1 -2 -2 -0 -0 1 -0 -1 -1 -1 -3 -2 -0 -1 -2 -1 -1 -2 -3 -3 -2 0 -1 -2 -2 -0 -5 -1 -2 0 -0 -0 -2 -1 -1 -2 -2 -1 -2 -1 -1 -2 -2 1 2 2
-0 0 -0 -0 -0 0 0 -0 0 -1 -3 -1 -1 -2 1 -1 -1 -0 -0 -0 -0 -2 -3 -2 -2 -2 0 -1 1 -1 -1 -0 -3 1 1 -1 -1 -2 -0 -0 -1 0 0 -1 -2 -2 -1 -2 -2 -1 -2 -2 -1 1
-1 -0 1 1 1 1 1 -0 -1 -2 0 0 -2 1 2 0 -2 -3 0 0 1 -0 -1 -1 -1 2 -2 -3 5 0 6 10 7 -3 -5 1 -1 -2 -1 -1 -0 -1 -1 -3 -4 -5 -2 -1 -1 -0 -1 -1 -2 -1
-0 -1 -1 -0 0 0 0 2 1 -0 0 -1 -2 1 0 -0 -1 -2 -2 -2 -1 -2 -0 -3 1 3 -0 1 3 1 -0 -4 -0 2 -1 1 1 -0 2 5 0 1 -1 -2 -1 -4 -3 -0 -1 1 0 1 -1 -1
-2 -1 0 -1 -1 0 1 1 -1 -1 -0 -1 -1 0 -1 -2 1 1 -2 0 2 2 0 1 -2 1 1 1 1 1 -1 2 4 -0 -1 -2 2 2 -2 -3 -3 -1 -2 -3 -2 -4 -1 -1 -1 -0 1 1 0 -1
0 -1 -1 -1 -0 -0 -1 1 0 0 -2 -3 -1 -0 1 -0 -1 -0 -0 -1 -2 -1 -1 0 3 0 0 1 2 0 -1 1 3 0 -3 -5 -5 -3 -3 -1 -2 -1 -0 -2 -1 -2 -1 -1 -3 1 0 1 3 -3
-0 -0 0 -0 -1 -2 -1 2 1 3 3 1 0 1 2 1 1 1 1 2 -1 -2 0 0 -1 3 1 -1 -2 -1 -0 1 -0 0 2 2 -1 -0 -1 -3 -3 -4 -4 -3 0 3 -3 -1 -0 -2 1 -0 -0 2
-0 -1 0 -0 -1 0 -1 -0 -0 0 2 0 1 -1 -0 1 1 1 1 -0 -0 -1 -3 -3 -1 1 1 1 -0 2 1 -1 -0 -0 -0 1 2 1 0 -3 0 2 1 -3 -2 -1 0 -1 -2 -1 1 1 -0 2
0 -1 -0 -1 -1 -0 0 0 1 2 0 1 -1 -2 -2 -1 1 -0 4 2 2 -0 -0 -1 -2 -1 1 -0 -1 1 -0 0 1 1 0 -0 -2 -2 -2 -1 -3 -3 4 1 -4 -2 -0 -1 -3 -0 -1 -2 -0 -0
1 1 -0 -2 -1 -1 0 -1 -0 -0 -1 -2 0 -0 3 3 0 1 4 3 4 4 2 1 -2 -2 -2 -2 0 1 1 1 -1 -3 -3 -2 3 1 -3 2 -0 -4 -4 -0 -1 0 -1 -2 -2 -0 -1 -0 -1 0
-2 1 -1 -1 0 0 1 2 0 -2 -0 1 2 -1 -1 -0 0 2 -1 -0 0 -1 -1 1 2 4 4 4 4 3 1 -0 -0 -1 -2 -4 -3 -0 -0 3 -1 -5 -2 1 -0 -1 -2 -2 -0 -1 -1 -1 1 1
-1 1 -1 0 -1 -1 -1 -3 -1 2 0 1 -2 -1 0 2 3 -1 -1 1 3 0 -0 1 1 0 -3 2 4 4 3 3 2 4 1 -2 -4 -4 -2 1 8 4 -14 -5 2 0 -1 -3 -1 -1 1 -1 -0 1
-2 -1 -1 -1 -1 -2 -1 0 0 -1 -2 -1 2 2 1 -2 -4 1 -5 -4 -3 -2 -0 -1 -1 -0 1 2 2 1 1 2 2 3 2 0 -2 -4 -3 -2 1 3 5 -1 -5 -4 2 1 -2 -3 1 1 -0 -1
0 1 1 0 -2 -1 -1 -1 0 -1 2 1 -0 -1 -2 -5 0 -4 -3 -3 -2 -2 -2 -1 -1 -1 -0 -1 -0 1 1 -1 -1 -2 -1 -0 -1 -5 -7 -2 -1 3 6 3 0 -2 -3 0 1 -0 -0 3 2 -1
1 -0 -0 -1 -1 -0 1 -1 -0 -0 0 -1 -0 2 -1 0 1 1 0 0 0 -1 -1 -1 -3 -0 -0 -1 -1 -2 -2 -2 -3 1 3 5 8 3 -9 -6 -4 -1 3 5 1 1 0 -0 -1 -1 1 3 1 1
1 0 0 2 1 1 1 -2 -1 -1 -1 -4 -2 -1 0 1 -0 2 0 0 1 2 -0 0 1 2 2 2 4 3 -4 -2 -5 -8 -3 4 2 3 1 -1 -2 -4 -3 1 3 -1 -1 2 1 -0 2 2 1 1
-0 1 0 -1 -1 -1 -0 1 -1 -0 2 4 1 0 0 -3 1 0 -0 -3 0 1 1 -0 -3 -5 -1 -2 -2 1 5 -2 -1 -3 -5 -1 0 0 1 1 1 1 -1 -1 -1 1 1 0 2 1 1 1 0 1
0 -1 -1 -0 -0 -2 0 0 1 0 -3 1 2 -1 -3 -3 -1 1 -3 -2 -2 0 1 -1 -1 1 -1 -1 0 -1 -2 0 -3 0 2 0 -1 0 1 -0 1 2 1 -0 0 1 1 1 1 1 -0 0 1 2
-0 -0 -1 -0 1 1 2 2 -2 -2 -2 2 4 3 5 2 0 -1 -0 -1 -1 -1 3 3 0 1 0 -2 1 1 -0 2 -1 -1 1 1 0 0 -0 -1 -0 0 -0 0 1 1 1 1 1 1 1 1 1 1
Height
5540 5540 5540 5540 5541 5540 5538 5537 5537 5534 5531 5527 5522 5519 5517 5514 5511 5505 5504 5501 5501 5499 5494 5489 5486 5483 5479 5476 5476 5476 5474 5468 5463 5460 5456 5458 5460 5460 5460 5461 5460 5462 5463 5464 5465 5465 5466 5465 5465 5465 5465 5464 5466 5467
5530 5530 5529 5528 5526 5527 5526 5524 5520 5517 5514 5509 5505 5500 5495 5493 5491 5485 5483 5483 5484 5485 5485 5480 5475 5469 5467 5465 5462 5461 5460 5455 5450 5448 5447 5448 5453 5455 5457 5458 5457 5460 5460 5461 5463 5464 5461 5460 5461 5462 5461 5460 5462 5464
5521 5518 5515 5513 5514 5512 5509 5506 5503 5500 5495 5490 5483 5479 5475 5473 5472 5471 5466 5469 5469 5472 5473 5471 5461 5458 5455 5453 5449 5452 5449 5444 5443 5439 5439 5441 5445 5450 5453 5455 5454 5456 5457 5458 5459 5460 5456 5455 5457 5457 5458 5459 5460 5461
5511 5506 5502 5501 5499 5496 5491 5487 5483 5477 5473 5467 5462 5459 5456 5454 5454 5456 5454 5456 5458 5459 5461 5459 5452 5450 5446 5443 5440 5439 5437 5436 5435 5433 5432 5435 5441 5446 5450 5450 5451 5453 5455 5454 5454 5453 5453 5453 5452 5453 5453 5456 5458 5457
5499 5492 5489 5487 5482 5476 5470 5465 5462 5457 5452 5448 5443 5441 5440 5440 5440 5443 5445 5446 5447 5450 5452 5451 5444 5443 5438 5436 5433 5430 5429 5427 5426 5426 5427 5433 5439 5443 5446 5447 5449 5450 5452 5452 5452 5451 5451 5451 5451 5451 5452 5453 5453 5452
5489 5483 5477 5471 5464 5457 5450 5444 5441 5435 5430 5427 5426 5428 5431 5433 5435 5435 5438 5441 5442 5443 5444 5441 5437 5435 5434 5432 5430 5427 5425 5424 5423 5423 5428 5433 5437 5439 5442 5445 5446 5448 5449 5449 5449 5449 5450 5450 5450 5448 5448 5447 5445 5444
5486 5479 5472 5464 5454 5446 5438 5429 5424 5419 5416 5416 5418 5421 5426 5428 5430 5433 5436 5437 5438 5438 5437 5437 5436 5436 5434 5433 5431 5429 5428 5427 5426 5427 5430 5432 5435 5437 5441 5443 5446 5446 5449 5449 5448 5449 5448 5446 5445 5443 5440 5438 5435 5433
5483 5477 5470 5463 5454 5444 5436 5430 5424 5420 5418 5419 5421 5424 5426 5428 5430 5432 5433 5434 5434 5436 5437 5438 5438 5437 5436 5435 5433 5431 5430 5429 5429 5429 5432 5434 5436 5439 5442 5444 5445 5446 5446 5447 5446 5444 5442 5441 5438 5435 5432 5429 5427 5424
5482 5478 5473 5468 5461 5453 5445 5439 5434 5430 5427 5427 5428 5429 5429 5429 5430 5432 5432 5434 5437 5440 5440 5440 5439 5438 5437 5436 5434 5432 5430 5430 5431 5431 5433 5436 5438 5441 5443 5443 5444 5445 5445 5445 5443 5441 5438 5435 5432 5430 5427 5424 5422 5418
5483 5480 5476 5471 5467 5462 5457 5451 5447 5444 5442 5439 5437 5436 5436 5436 5436 5437 5439 5440 5441 5442 5442 5442 5441 5439 5439 5437 5435 5434 5433 5433 5434 5436 5437 5440 5441 5442 5443 5443 5443 5443 5443 5441 5439 5436 5433 5429 5426 5425 5423 5422 5419 5416
5483 5480 5478 5476 5473 5469 5465 5461 5458 5455 5452 5450 5447 5445 5444 5443 5443 5444 5444 5444 5445 5445 5445 5444 5443 5442 5441 5440 5438 5437 5437 5437 5436 5440 5441 5441 5442 5442 5442 5442 5441 5441 5439 5436 5433 5430 5427 5426 5424 5422 5419 5417 5415 5414
5484 5483 5481 5479 5476 5473 5470 5467 5464 5462 5459 5457 5454 5453 5452 5451 5451 5451 5450 5450 5449 5449 5448 5448 5447 5446 5444 5443 5442 5442 5441 5440 5440 5440 5441 5441 5441 5441 5440 5440 5439 5437 5435 5433 5431 5427 5425 5423 5420 5418 5416 5414 5411 5410
5484 5483 5481 5479 5476 5474 5472 5470 5468 5466 5464 5462 5461 5459 5458 5457 5455 5455 5454 5453 5452 5450 5449 5449 5448 5447 5446 5445 5443 5442 5441 5441 5441 5441 5441 5440 5439 5438 5437 5437 5435 5434 5432 5430 5427 5424 5421 5419 5417 5416 5413 5411 5409 5407
5485 5483 5480 5478 5475 5473 5471 5469 5468 5467 5465 5464 5463 5461 5460 5458 5457 5456 5454 5453 5453 5451 5450 5449 5447 5446 5445 5445 5444 5443 5442 5441 5440 5439 5438 5437 5436 5434 5433 5432 5431 5430 5428 5425 5423 5420 5417 5415 5413 5412 5410 5408 5406 5404
5482 5480 5478 5475 5472 5470 5467 5466 5465 5464 5463 5462 5461 5460 5459 5457 5456 5455 5454 5453 5451 5450 5449 5448 5446 5445 5444 5443 5442 5441 5440 5438 5437 5436 5434 5433 5431 5430 5428 5427 5425 5424 5422 5420 5418 5415 5413 5411 5409 5407 5405 5404 5402 5401
5480 5478 5475 5472 5469 5467 5465 5463 5461 5459 5458 5458 5457 5456 5456 5454 5453 5452 5451 5449 5448 5447 5445 5444 5443 5441 5440 5439 5438 5436 5436 5434 5432 5430 5428 5426 5424 5422 5421 5420 5418 5417 5415 5413 5411 5409 5407 5405 5404 5401 5399 5398 5397 5396
5479 5476 5474 5471 5469 5466 5464 5461 5458 5456 5454 5453 5451 5450 5450 5449 5447 5446 5445 5444 5442 5441 5439 5437 5436 5435 5433 5432 5431 5430 5429 5426 5424 5421 5418 5417 5415 5414 5412 5410 5409 5407 5406 5404 5402 5401 5399 5397 5396 5395 5393 5391 5389 5388
5478 5476 5473 5470 5468 5465 5463 5460 5458 5454 5452 5450 5447 5446 5444 5442 5441 5438 5436 5435 5434 5432 5430 5428 5427 5426 5424 5423 5422 5420 5418 5415 5413 5410 5408 5406 5404 5402 5401 5400 5398 5396 5394 5393 5392 5390 5388 5387 5387 5387 5386 5385 5383 5381
5477 5475 5472 5469 5466 5464 5461 5459 5456 5453 5450 5447 5445 5443 5440 5438 5435 5433 5430 5428 5426 5424 5422 5420 5418 5416 5414 5412 5410 5408 5405 5405 5403 5400 5397 5395 5394 5392 5390 5388 5385 5384 5382 5381 5380 5379 5378 5377 5376 5376 5376 5376 5375 5374
5474 5471 5469 5467 5464 5461 5459 5457 5454 5451 5449 5446 5443 5441 5438 5435 5432 5428 5425 5422 5419 5416 5413 5411 5409 5406 5403 5401 5398 5396 5394 5393 5391 5387 5384 5381 5380 5378 5376 5374 5372 5371 5370 5369 5368 5367 5366 5366 5365 5365 5366 5366 5366 5366
5472 5470 5467 5464 5461 5458 5456 5454 5451 5449 5446 5443 5440 5437 5434 5430 5426 5423 5419 5416 5413 5409 5406 5402 5399 5396 5393 5390 5387 5384 5381 5379 5376 5374 5371 5368 5365 5363 5360 5358 5356 5355 5354 5354 5355 5354 5353 5353 5353 5353 5353 5354 5355 5356
5469 5466 5464 5461 5458 5455 5453 5450 5448 5445 5443 5439 5435 5431 5428 5425 5421 5417 5414 5409 5405 5401 5397 5393 5389 5386 5381 5378 5374 5371 5369 5365 5362 5359 5357 5355 5353 5350 5346 5343 5342 5341 5339 5337 5336 5336 5337 5337 5338 5339 5341 5341 5342 5344
5465 5463 5460 5457 5454 5451 5450 5446 5444 5440 5437 5434 5430 5426 5422 5417 5413 5409 5405 5401 5396 5391 5386 5381 5377 5373 5369 5365 5362 5359 5355 5351 5348 5345 5342 5339 5336 5334 5331 5329 5327 5325 5325 5324 5321 5321 5320 5320 5320 5322 5324 5326 5327 5329
5461 5459 5456 5453 5450 5448 5445 5441 5438 5435 5431 5427 5423 5418 5414 5410 5405 5401 5396 5391 5386 5382 5377 5372 5366 5360 5356 5352 5349 5345 5341 5337 5333 5329 5326 5323 5321 5318 5315 5313 5310 5307 5306 5306 5306 5306 5305 5305 5304 5305 5306 5308 5310 5313
5457 5455 5452 5449 5446 5443 5440 5436 5433 5429 5425 5420 5416 5410 5405 5400 5395 5391 5386 5381 5376 5371 5366 5360 5355 5350 5345 5340 5335 5330 5325 5321 5317 5313 5308 5305 5304 5302 5299 5297 5293 5289 5288 5288 5288 5288 5288 5288 5289 5290 5290 5291 5293 5295
5451 5449 5447 5444 5440 5437 5433 5429 5425 5421 5416 5411 5406 5401 5395 5390 5386 5380 5374 5369 5363 5357 5351 5345 5340 5334 5328 5322 5317 5312 5307 5302 5297 5293 5289 5284 5282 5281 5281 5280 5278 5274 5270 5270 5270 5270 5271 5272 5272 5274 5275 5276 5277 5279
5446 5443 5440 5436 5432 5428 5425 5421 5417 5412 5407 5402 5397 5390 5384 5379 5373 5368 5361 5354 5348 5342 5335 5328 5322 5316 5309 5303 5297 5290 5285 5280 5276 5272 5268 5263 5260 5258 5258 5259 5259 5258 5256 5255 5254 5254 5255 5255 5256 5258 5259 5261 5262 5263
5439 5436 5433 5429 5425 5422 5417 5413 5408 5403 5398 5392 5386 5380 5373 5366 5361 5354 5348 5341 5334 5326 5319 5311 5303 5295 5288 5281 5275 5269 5264 5259 5255 5252 5248 5245 5240 5237 5237 5238 5239 5240 5240 5240 5239 5239 5240 5241 5242 5243 5245 5246 5248 5248
5432 5428 5425 5421 5417 5413 5408 5403 5399 5393 5388 5382 5376 5369 5362 5355 5349 5342 5335 5327 5319 5310 5301 5293 5284 5277 5269 5262 5257 5251 5245 5241 5237 5235 5233 5231 5229 5225 5221 5220 5221 5222 5224 5225 5225 5226 5226 5228 5228 5229 5231 5233 5234 5235
5425 5421 5418 5414 5409 5404 5400 5394 5389 5383 5377 5371 5365 5358 5351 5344 5337 5329 5321 5312 5303 5294 5285 5276 5268 5260 5254 5249 5245 5239 5232 5227 5221 5217 5216 5215 5213 5211 5210 5210 5209 5209 5210 5211 5212 5213 5214 5216 5217 5218 5220 5221 5222 5224
5417 5414 5410 5406 5401 5396 5390 5385 5379 5373 5368 5361 5354 5347 5339 5331 5324 5316 5307 5298 5288 5277 5267 5259 5252 5246 5241 5236 5232 5229 5225 5219 5214 5209 5205 5202 5200 5200 5200 5200 5199 5200 5200 5200 5201 5202 5203 5204 5206 5207 5209 5210 5212 5214
5409 5405 5401 5397 5392 5387 5382 5376 5370 5363 5357 5350 5343 5334 5326 5318 5310 5301 5292 5282 5273 5263 5254 5247 5241 5236 5230 5226 5222 5218 5215 5212 5208 5203 5199 5196 5193 5192 5192 5192 5192 5192 5192 5192 5192 5193 5194 5195 5196 5198 5200 5202 5204 5207
5401 5397 5393 5389 5384 5378 5373 5367 5359 5353 5346 5339 5332 5324 5316 5307 5299 5289 5279 5269 5260 5252 5244 5238 5232 5226 5221 5217 5213 5210 5207 5205 5201 5197 5193 5190 5189 5187 5186 5185 5185 5184 5184 5184 5185 5185 5186 5187 5189 5191 5193 5196 5198 5201